Retour au catalogue

COSMOS 970 DEB

ActifLEO
NORAD 10573·DEBRIS·🇷🇺 Russia

Lancé Dec 21, 1977 depuis Baikonur Cosmodrome

Loading…

Prochains Passages (prochaines 24 heures)

TLE

FraisSource: Space-Track

Époque: Sep 13, 2026, 21:28 UTC

1 10573U 77121Q   26256.89448399  .00000016  00000-0  13138-3 0  9995
2 10573  66.3620  71.5474 0086668  15.8610  94.7921 13.52031027401960

Suivez COSMOS 970 DEB en temps réel avec AllMySat

Download on the App Store